Weather History for Redmond, OR

Change the Weather History Date:

Sunday, November 25, 2012

  Actual Average Record
Temperature  
Mean Temperature 34 °F 34 °F  
Max Temperature 44 °F 45 °F 66 °F (1999)
Min Temperature 24 °F 24 °F -11 °F (1993)
Degree Days  
Heating Degree Days 31 31  
Month to date heating degree days 584 671  
Since 1 July heating degree days 1389 1616  
Cooling Degree Days 0 0  
Month to date cooling degree days 0 0  
Year to date cooling degree days 206 222  
Moisture  
Dew Point 28 °F    
Average Humidity 73    
Maximum Humidity 92    
Minimum Humidity 53    
Precipitation  
Precipitation 0.00 in 0.04 in 0.57 in (1977)
Month to date precipitation 0.80 0.79  
Year to date precipitation 9.85 7.57  
Sea Level Pressure  
Sea Level Pressure 30.21 in    
Wind  
Wind Speed 2 mph (East)    
Max Wind Speed 9 mph    
Max Gust Speed 12 mph    
Visibility 10 miles    
Events      
T = Trace of Precipitation, MM = Missing Value Source: NWS Daily Summary

Daily Weather History Graph

Daily Weather History Graph

Search for Another Location

Airport:

Trip Planner

Search our weather history database for the weather conditions in past years. The results will help you decide how hot, cold, wet, or windy it might be!

Date:

Astronomy

Nov. 25, 2012 Rise Set
Actual Time 7:13 AM PST 4:29 PM PST
Civil Twilight 6:41 AM PST 5:01 PM PST
Nautical Twilight 6:05 AM PST 5:37 PM PST
Astronomical Twilight 5:31 AM PST 6:12 PM PST
Moon 2:52 PM PST 4:28 AM PST
Length of Visible Light 10h 20m
Length of Day
9h 15m
Waxing Gibbous, 93% of the Moon is Illuminated
Nov 25
Waxing Gibbous
Nov 28
Full
Dec 6
Last Quarter
Dec 13
New
Dec 19
First Quarter

Hourly Weather History & Observations

Time (PST) Temp. Windchill Dew Point Humidity Pressure Visibility Wind Dir Wind Speed Gust Speed Precip Events Conditions
12:56 AM 37.0 °F 33.3 °F 30.9 °F 79% 30.16 in 10.0 mi North 4.6 mph - N/A   Overcast
1:51 AM 35.6 °F 32.8 °F 30.2 °F 81% 30.14 in 10.0 mi NNW 3.5 mph - N/A   Overcast
1:56 AM 36.0 °F - 30.9 °F 82% 30.17 in 10.0 mi Calm Calm - N/A   Overcast
2:56 AM 35.1 °F - 30.0 °F 82% 30.17 in 10.0 mi Calm Calm - N/A   Overcast
3:56 AM 33.1 °F - 30.9 °F 92% 30.19 in 10.0 mi Calm Calm - N/A   Overcast
4:56 AM 32.0 °F 28.7 °F 28.9 °F 88% 30.19 in 10.0 mi NE 3.5 mph - N/A   Mostly Cloudy
5:56 AM 32.0 °F - 28.9 °F 88% 30.21 in 10.0 mi Calm Calm - N/A   Overcast
6:56 AM 30.0 °F - 28.0 °F 92% 30.22 in 10.0 mi Calm Calm - N/A   Mostly Cloudy
7:56 AM 30.9 °F - 28.9 °F 92% 30.24 in 10.0 mi Calm Calm - N/A   Clear
8:56 AM 35.1 °F - 30.9 °F 85% 30.23 in 10.0 mi Calm Calm - N/A   Clear
9:56 AM 39.0 °F 36.8 °F 30.0 °F 70% 30.23 in 10.0 mi Variable 3.5 mph - N/A   Clear
10:56 AM 39.0 °F 36.8 °F 28.9 °F 67% 30.23 in 10.0 mi South 3.5 mph - N/A   Mostly Cloudy
11:03 AM 39.2 °F 35.9 °F 28.4 °F 65% 30.19 in 10.0 mi SE 4.6 mph - N/A   Scattered Clouds
11:23 AM 37.4 °F - 26.6 °F 65% 30.19 in 10.0 mi Calm Calm - N/A   Mostly Cloudy
11:52 AM 39.2 °F - 28.4 °F 65% 30.18 in 10.0 mi Calm Calm - N/A   Overcast
11:56 AM 39.0 °F - 28.0 °F 65% 30.22 in 10.0 mi Calm Calm - N/A   Mostly Cloudy
12:56 PM 42.1 °F 37.7 °F 28.0 °F 58% 30.19 in 10.0 mi ENE 6.9 mph - N/A   Mostly Cloudy
1:56 PM 41.0 °F - 27.0 °F 57% 30.20 in 10.0 mi Calm Calm - N/A   Clear
2:56 PM 43.0 °F 40.3 °F 26.1 °F 51% 30.20 in 10.0 mi North 4.6 mph - N/A   Partly Cloudy
3:56 PM 39.9 °F 34.5 °F 28.9 °F 65% 30.21 in 10.0 mi NNW 8.1 mph - N/A   Clear
4:56 PM 35.1 °F 30.1 °F 28.9 °F 78% 30.22 in 10.0 mi NNW 5.8 mph - N/A   Clear
5:56 PM 28.9 °F - 26.1 °F 89% 30.24 in 10.0 mi Calm Calm - N/A   Clear
6:56 PM 28.0 °F - 26.1 °F 92% 30.24 in 10.0 mi Calm Calm - N/A   Clear
7:56 PM 28.0 °F - 26.1 °F 92% 30.24 in 10.0 mi Calm Calm - N/A   Clear
8:56 PM 26.1 °F 21.9 °F 24.1 °F 92% 30.25 in 10.0 mi South 3.5 mph - N/A   Clear
9:56 PM 26.1 °F 21.9 °F 23.0 °F 88% 30.25 in 10.0 mi SSE 3.5 mph - N/A   Mostly Cloudy
10:56 PM 25.0 °F 20.7 °F 23.0 °F 92% 30.24 in 10.0 mi South 3.5 mph - N/A   Clear
11:56 PM 25.0 °F 20.7 °F 21.9 °F 88% 30.25 in 10.0 mi South 3.5 mph - N/A   Clear